COSMOS 2499 DEB, 49936

Orbit data source: Space-Track

COSMOS 2499 DEB, 49936 is space debris in LEO originally from a launch on Fri, 23 May 2014 UTC launched from the Plesetsk Missile And Space Complex (PKMTR). Debris objects in space refer to the collection of defunct objects orbiting the Earth. Examples of debris include non-operational satellites, rocket bodies, and fragments generated from explosions, collisions, or faulty payload assembly.

Loading next visibility...
Identifier
49936, 2014-028T
Orbit
LEO
Country
Flag of CISCIS
Related business
Manufacturer
TsNIIKhM
Mission
Spacecraft
Bus & Motor
Unknown
Mass
Unknown
Launch date (UTC)
2014-05-23 (12 years ago)
Launch vehicle
Unknown
Launch site
Plesetsk Missile And Space Complex (PKMTR)
Object type
Payload
Rocket body
Debris
Shape & HBR
Unknown shape, 0.1 m
Radar Cross Section
Small (<0.1 m²)

Expand to show TLE details & history
Last TLE update: 4 days ago

TLE from 4 days ago
0 COSMOS 2499 DEB
1 49936U 14028T   26169.88348023  .00008300  00000-0  17421-1 0  9993
2 49936  82.5319 233.5998 0324785 189.0643 170.4528 13.13393360 89219
Epoch: 2026-06-18T21:12Z
TLE epoch observation values (Epoch: 2026-06-18T21:12:12.691Z)
Latitude
Longitude
8.4265°
Altitude
1,456.159 km
Speed
7.019 km/s
True Right ascension
15h 34m 23s
True Declination
0° 00' 00"
Sunlit
Object was in full shadow at epoch
Visualization orbit readout
Latitude
Unknown
Longitude
Unknown
Altitude
Unknown
Speed
Unknown
Apparent Right ascension
Unknown
Apparent Declination
Unknown
Sunlit
N/A
Visualization observer readout
Local Sidereal Time
21:42:10
Azimuth
Unknown
Elevation
Unknown
Doppler factor
Unknown
Orbital elements
Apogee altitude
1,453.671 km
Perigee altitude
960.943 km
Semi-major axis
7,585.444 km
Eccentricity
0.03248
Inclination
82.5319°
RAAN
233.5998°
Arg. of periapsis
189.0643°
True anomaly
171.04628°
Mean anomaly
170.4528°
Eccentric anomaly
170.75186°
Mean motion
3.28527 °/min
Orbital period
109.58 mins
BSTAR
0.017421
Loading maneuver chart data...
Computing Atmospheric mass density...
Loading historical data...
Loading historical data...
Loading historical data...
Loading historical data...
Loading historical data...
Loading historical data...
Loading historical data...

Documentation

Showing up to 5 results
|